Pittsfield, IL

7:05 PM CST on February 27, 2017 (GMT -0600)
Pittsfield Penstone Municipal

Weather History for KPPQ - February, 2014

Change the Weather History Date:

Friday, February 14, 2014

  Actual Average (KUIN) Record (KUIN)
Temperature  
Mean Temperature 20 °F -  
Max Temperature 29 °F 37 °F 72 °F (1954)
Min Temperature 10 °F 22 °F -13 °F (1905)
Degree Days  
Heating Degree Days 46    
Moisture  
Dew Point 15 °F    
Average Humidity 80    
Maximum Humidity 90    
Minimum Humidity 70    
Precipitation  
Precipitation 0.09 in - - ()
Sea Level Pressure  
Sea Level Pressure 29.85 in    
Wind  
Wind Speed 8 mph (NNW)    
Max Wind Speed 16 mph    
Max Gust Speed 22 mph    
Visibility 7 miles    
Events Rain , Snow    
Averages and records for this station are not official NWS values.
T = Trace of Precipitation, MM = Missing Value Source: NWS Daily Summary

Daily Weather History Graph

Daily Weather History Graph

Search for Another Location

Airport or City:

Trip Planner

Search our weather history database for the weather conditions in past years. The results will help you decide how hot, cold, wet, or windy it might be!

Date:

Astronomy

Feb. 14, 2014 Rise Set
Actual Time 6:56 AM CST 5:38 PM CST
Civil Twilight 6:29 AM CST 6:06 PM CST
Nautical Twilight 5:57 AM CST 6:37 PM CST
Astronomical Twilight 5:26 AM CST 7:09 PM CST
Moon 5:42 PM CST (2/14) 6:23 AM CST (2/14)
Length of Visible Light 11h 37m
Length of Day
10h 41m
Full, 100% of the Moon is Illuminated
Feb 14
Full
Feb 14
Full
Feb 22
Last Quarter
Mar 1
New
Mar 8
First Quarter

Hourly Weather History & Observations

Time (CST) Temp. Windchill Dew Point Humidity Pressure Visibility Wind Dir Wind Speed Gust Speed Precip Events Conditions
12:15 AM 29.8 °F 23.0 °F 25.3 °F 83% 29.76 in 10.0 mi NNW 6.9 mph - N/A   Clear
12:35 AM 29.5 °F 22.5 °F 24.3 °F 81% 29.75 in 10.0 mi North 6.9 mph - N/A   Clear
12:55 AM 28.6 °F 23.5 °F 23.4 °F 81% 29.75 in 10.0 mi NNE 4.6 mph - N/A   Clear
1:15 AM 27.3 °F 22.0 °F 22.1 °F 81% 29.75 in 10.0 mi North 4.6 mph - N/A   Clear
1:35 AM 26.2 °F 19.6 °F 19.8 °F 76% 29.76 in 10.0 mi NNW 5.8 mph - N/A   Clear
1:55 AM 26.2 °F - 19.8 °F 76% 29.75 in 10.0 mi Calm Calm - N/A   Clear
2:15 AM 25.0 °F - 19.2 °F 79% 29.73 in 10.0 mi Calm Calm - N/A   Clear
2:35 AM 24.4 °F 20.1 °F 19.6 °F 82% 29.73 in 10.0 mi NNE 3.5 mph - N/A   Clear
2:55 AM 24.6 °F 17.7 °F 18.0 °F 76% 29.73 in 10.0 mi North 5.8 mph - N/A   Clear
3:15 AM 23.9 °F 18.0 °F 17.4 °F 76% 29.75 in 10.0 mi NW 4.6 mph - N/A   Scattered Clouds
3:35 AM 22.8 °F - 17.2 °F 79% 29.73 in 10.0 mi Calm Calm - N/A   Mostly Cloudy
3:55 AM 23.9 °F - 17.8 °F 77% 29.74 in 10.0 mi Calm Calm - N/A   Scattered Clouds
4:15 AM 23.9 °F 16.8 °F 17.8 °F 77% 29.76 in 10.0 mi NW 5.8 mph - N/A   Mostly Cloudy
4:35 AM 24.6 °F 20.3 °F 17.8 °F 75% 29.75 in 10.0 mi NNW 3.5 mph - N/A   Mostly Cloudy
4:55 AM 24.4 °F 20.1 °F 16.9 °F 73% 29.75 in 10.0 mi North 3.5 mph - N/A   Scattered Clouds
5:15 AM 24.6 °F 20.3 °F 16.5 °F 71% 29.79 in 10.0 mi WNW 3.5 mph - N/A   Mostly Cloudy
5:35 AM 24.4 °F - 16.9 °F 73% 29.75 in 10.0 mi Calm Calm - N/A   Overcast
5:55 AM 24.1 °F 16.0 °F 17.2 °F 75% 29.73 in 2.5 mi NE 6.9 mph - N/A Snow Light Snow
6:15 AM 21.9 °F 9.2 °F 19.2 °F 89% 29.68 in 0.2 mi NE 13.8 mph - 0.01 in Snow Light Snow
6:35 AM 22.1 °F 14.7 °F 19.4 °F 89% 29.70 in 5.0 mi NE 5.8 mph - 0.02 in Snow Light Snow
6:55 AM 22.3 °F 9.7 °F 19.4 °F 89% 29.68 in 7.0 mi ENE 13.8 mph - 0.02 in   Overcast
7:15 AM 22.1 °F 11.3 °F 19.4 °F 89% 29.71 in 2.0 mi NNE 10.4 mph - N/A Snow Light Snow
7:35 AM 21.6 °F 11.3 °F 19.0 °F 90% 29.70 in 2.0 mi NE 9.2 mph - N/A Snow Light Snow
7:55 AM 21.2 °F 12.6 °F 18.3 °F 89% 29.72 in 2.5 mi NNE 6.9 mph - 0.01 in Snow Light Snow
8:15 AM 20.3 °F 10.6 °F 17.6 °F 89% 29.72 in 1.2 mi NE 8.1 mph - N/A Snow Light Snow
8:35 AM 20.3 °F 12.5 °F 17.6 °F 89% 29.73 in 0.5 mi NNE 5.8 mph - 0.03 in Snow Light Snow
8:55 AM 20.1 °F 10.3 °F 17.6 °F 90% 29.72 in 0.2 mi ENE 8.1 mph - 0.05 in Snow Heavy Snow
9:15 AM 20.1 °F 9.5 °F 17.6 °F 90% 29.71 in 1.2 mi NNE 9.2 mph - 0.01 in Snow Light Snow
9:35 AM 20.3 °F 11.5 °F 17.2 °F 88% 29.74 in 2.5 mi North 6.9 mph - 0.01 in   Overcast
9:55 AM 19.8 °F 8.3 °F 16.7 °F 88% 29.78 in 4.0 mi NNW 10.4 mph - 0.01 in Snow Light Snow
10:15 AM 19.8 °F 9.1 °F 16.5 °F 87% 29.78 in 5.0 mi North 9.2 mph - N/A Snow Light Snow
10:35 AM 20.1 °F 8.8 °F 16.7 °F 87% 29.79 in 5.0 mi North 10.4 mph 17.3 mph N/A Rain Light Freezing Rain
10:55 AM 20.3 °F 7.2 °F 17.1 °F 87% 29.79 in 5.0 mi North 13.8 mph - N/A Snow Light Snow
11:15 AM 20.1 °F 9.5 °F 16.5 °F 86% 29.80 in 5.0 mi North 9.2 mph - N/A Snow Light Snow
11:35 AM 20.3 °F 6.6 °F 16.7 °F 86% 29.77 in 3.0 mi North 15.0 mph - N/A Snow Light Snow
11:55 AM 20.8 °F 9.0 °F 17.2 °F 86% 29.78 in 3.0 mi North 11.5 mph 18.4 mph N/A Snow Light Snow
12:15 PM 21.4 °F 9.7 °F 17.4 °F 85% 29.80 in 5.0 mi NNW 11.5 mph - N/A Snow Light Snow
12:35 PM 21.7 °F 10.8 °F 17.4 °F 83% 29.80 in 7.0 mi North 10.4 mph - N/A   Overcast
12:55 PM 22.5 °F 10.5 °F 17.8 °F 82% 29.81 in 5.0 mi NNW 12.7 mph 16.1 mph N/A   Overcast
1:15 PM 22.6 °F 9.6 °F 18.3 °F 83% 29.80 in 5.0 mi NNW 15.0 mph - N/A   Overcast
1:35 PM 23.0 °F 10.6 °F 18.0 °F 81% 29.82 in 7.0 mi NNW 13.8 mph 21.9 mph N/A   Overcast
1:55 PM 22.1 °F 9.5 °F 16.7 °F 80% 29.83 in 7.0 mi NW 13.8 mph 17.3 mph N/A Snow Light Snow
2:15 PM 21.6 °F 8.8 °F 16.5 °F 81% 29.84 in 2.5 mi NW 13.8 mph - N/A Snow Light Snow
2:35 PM 21.2 °F 7.8 °F 16.2 °F 81% 29.84 in 2.5 mi NW 15.0 mph 20.7 mph N/A Snow Light Snow
2:55 PM 21.2 °F 8.9 °F 16.3 °F 82% 29.85 in 2.5 mi NW 12.7 mph - N/A Snow Light Snow
3:15 PM 21.9 °F 9.8 °F 16.9 °F 81% 29.86 in 2.5 mi NW 12.7 mph - N/A Snow Light Snow
3:35 PM 22.1 °F 8.5 °F 16.9 °F 80% 29.87 in 5.0 mi NW 16.1 mph - N/A Snow Light Snow
3:55 PM 22.1 °F 10.0 °F 16.9 °F 80% 29.88 in 7.0 mi NW 12.7 mph - N/A   Mostly Cloudy
4:15 PM 21.6 °F 8.2 °F 16.5 °F 81% 29.90 in 7.0 mi NW 15.0 mph 18.4 mph N/A   Overcast
4:35 PM 21.7 °F 9.0 °F 15.8 °F 78% 29.90 in 10.0 mi NW 13.8 mph 19.6 mph N/A   Overcast
4:55 PM 21.6 °F 9.9 °F 13.6 °F 72% 29.92 in 10.0 mi WNW 11.5 mph 21.9 mph N/A   Scattered Clouds
5:15 PM 21.2 °F 7.8 °F 12.9 °F 70% 29.92 in 10.0 mi NW 15.0 mph 19.6 mph N/A   Clear
5:35 PM 20.3 °F 8.3 °F 12.6 °F 72% 29.94 in 10.0 mi NW 11.5 mph - N/A   Clear
5:55 PM 19.6 °F 7.4 °F 12.0 °F 72% 29.95 in 10.0 mi NW 11.5 mph - N/A   Scattered Clouds
6:15 PM 19.0 °F 7.5 °F 11.1 °F 71% 29.96 in 10.0 mi WNW 10.4 mph - N/A   Scattered Clouds
6:35 PM 18.3 °F 7.3 °F 10.8 °F 72% 29.98 in 10.0 mi WNW 9.2 mph - N/A   Scattered Clouds
6:55 PM 18.3 °F 7.3 °F 10.4 °F 71% 29.99 in 10.0 mi WNW 9.2 mph - N/A   Clear
7:15 PM 17.6 °F 5.7 °F 10.0 °F 72% 30.00 in 10.0 mi WNW 10.4 mph - N/A   Scattered Clouds
7:35 PM 16.7 °F 3.8 °F 9.3 °F 73% 30.01 in 10.0 mi WNW 11.5 mph 16.1 mph N/A   Clear
7:55 PM 16.5 °F 4.3 °F 9.1 °F 73% 30.02 in 10.0 mi WNW 10.4 mph - N/A   Scattered Clouds
8:15 PM 15.8 °F 3.4 °F 8.2 °F 72% 30.02 in 10.0 mi WNW 10.4 mph 17.3 mph N/A   Clear
8:35 PM 15.3 °F 3.5 °F 7.7 °F 72% 30.03 in 10.0 mi WNW 9.2 mph - N/A   Clear
8:55 PM 14.5 °F 2.7 °F 7.2 °F 73% 30.03 in 10.0 mi NW 9.2 mph - N/A   Clear
9:15 PM 14.0 °F 5.1 °F 6.8 °F 73% 30.04 in 10.0 mi WNW 5.8 mph - N/A   Clear
9:35 PM 13.8 °F 2.7 °F 6.6 °F 73% 30.05 in 10.0 mi WNW 8.1 mph - N/A   Clear
9:55 PM 13.1 °F 0.9 °F 6.4 °F 75% 30.06 in 10.0 mi WNW 9.2 mph - N/A   Clear
10:15 PM 12.4 °F 2.0 °F 5.9 °F 75% 30.07 in 10.0 mi WNW 6.9 mph - N/A   Clear
10:35 PM 11.8 °F 0.3 °F 5.4 °F 75% 30.07 in 10.0 mi NW 8.1 mph - N/A   Clear
10:55 PM 10.6 °F -0.2 °F 4.8 °F 78% 30.07 in 10.0 mi WNW 6.9 mph - N/A   Clear
11:15 PM 11.1 °F 1.7 °F 5.0 °F 76% 30.07 in 10.0 mi WNW 5.8 mph - N/A   Clear
11:35 PM 10.9 °F 1.4 °F 5.0 °F 77% 30.08 in 10.0 mi West 5.8 mph - N/A   Clear
11:55 PM 10.4 °F -2.4 °F 4.8 °F 78% 30.09 in 10.0 mi West 9.2 mph - N/A   Clear